Regional Weather Roundup
Issued by NWS

Home | Current Version | Previous Version | Graphics & Text | Print | Product List | Glossary On
Versions: 1 2 3 4 5 6 7 8 9 10 11 12 13 14 15 16 17 18 19 20 21 22 23 24 25 26 27
000
ASUS45 KBOI 182110
RWRID
WEATHER ROUNDUP FOR IDAHO
NATIONAL WEATHER SERVICE BOISE ID
300 PM MDT FRI APR 18 2014

NOTE: "FAIR" INDICATES FEW OR NO CLOUDS BELOW 12000 FEET
WITH NO SIGNIFICANT WEATHER AND/OR OBSTRUCTIONS TO VISIBILITY

IDZ012-014-182200-
SOUTHWEST IDAHO


CITY           SKY/WX    TMP DP  RH WIND       PRES   REMARKS
BOISE          SUNNY     59  29  31 NW12G21   30.01F
CALDWELL       SUNNY     61  25  25 NW3       30.03S
MOUNTAIN HOME  SUNNY     62  25  24 N14G22    29.99F
$$

IDZ016-017-182200-
SOUTHCENTRAL IDAHO


CITY           SKY/WX    TMP DP  RH WIND       PRES   REMARKS
BURLEY         MOSUNNY   57  35  43 W16G28    29.97F
JEROME         SUNNY     58  32  37 W17G32    29.99F
TWIN FALLS     SUNNY     60  32  34 W18       29.99F
$$

IDZ019>023-182200-
SOUTHEAST IDAHO


CITY           SKY/WX    TMP DP  RH WIND       PRES   REMARKS
IDAHO FALLS    PTSUNNY   57  37  47 SW31G43   29.91S
POCATELLO      MOSUNNY   56  35  45 SW21G33   29.99R
REXBURG        PTSUNNY   55  35  47 S28G38    29.87F
$$

IDZ006-010-011-018-031-032-182200-
CENTRAL IDAHO MOUNTAINS


CITY           SKY/WX    TMP DP  RH WIND       PRES   REMARKS
MCCALL         MOSUNNY   48  11  22 SW15G22   29.98S
HAILEY         MOSUNNY   57  12  17 SW12G21   29.93F
STANLEY          N/A     43  15  32 NW10G21   29.98S
SALMON         MOSUNNY   54  28  37 E7G25     29.85R
CHALLIS        SUNNY     55  11  17 W9        29.90S
$$

IDZ002-004-006-007-026-182200-
NORTHERN IDAHO


CITY           SKY/WX    TMP DP  RH WIND       PRES   REMARKS
LEWISTON       SUNNY     59  17  19 W10G21    29.99F
LOWELL           N/A     59  23  25 NE7G21    30.00R
COEUR D`ALENE  MOSUNNY   50  32  50 SW20G26   29.96R
MULLAN PASS    LGT SNOW  27  25  93 W8G18     29.89R FOG     WCI  18
$$



USA.gov is the U.S. government's official web portal to all federal, state and local government web resources and services.